"Period start","avg(HW err(1)/warn(2) (#))","avg(Visibility (m))","avg(Weather code (#))","avg(Precip intensity (mm/h))","min(HW err(1)/warn(2) (#))","max(HW err(1)/warn(2) (#))","std(HW err(1)/warn(2) (#))","med(HW err(1)/warn(2) (#))","min(Visibility (m))","max(Visibility (m))","std(Visibility (m))","med(Visibility (m))","min(Weather code (#))","max(Weather code (#))","std(Weather code (#))","med(Weather code (#))","min(Precip intensity (mm/h))","max(Precip intensity (mm/h))","std(Precip intensity (mm/h))","med(Precip intensity (mm/h))"
2014-09-28 00:00:00,2,48158,0,0.00,2,2,0,2,38122,50000,3569,50000,0,0,0,0,0.00,0.00,0.00,0.00
2014-09-28 00:10:00,2,48789,0,0.00,2,2,0,2,44958,50000,1778,50000,0,0,0,0,0.00,0.00,0.00,0.00
2014-09-28 00:20:00,2,44574,0,0.00,2,2,0,2,38947,50000,4599,44725,0,0,0,0,0.00,0.00,0.00,0.00
2014-09-28 00:30:00,2,37280,0,0.00,2,2,0,2,19535,48448,9630,40794,0,0,0,0,0.00,0.00,0.00,0.00
2014-09-28 00:40:00,2,47908,16,0.00,2,2,0,2,40846,50000,3567,49963,0,41,20,0,0.00,0.00,0.00,0.00
2014-09-28 00:50:00,2,47009,0,0.00,2,2,0,2,42953,50000,2458,46675,0,0,0,0,0.00,0.00,0.00,0.00
2014-09-28 01:00:00,2,45400,0,0.00,2,2,0,2,13757,50000,10706,50000,0,0,0,0,0.00,0.00,0.00,0.00
2014-09-28 01:10:00,2,9244,65,0.78,2,2,0,2,2536,23991,6117,9384,40,71,12,71,0.00,2.80,0.85,0.42
2014-09-28 01:20:00,2,44896,21,0.00,2,2,0,2,30706,50000,6666,48184,0,71,33,0,0.00,0.00,0.00,0.00
2014-09-28 01:30:00,2,45698,0,0.00,2,2,0,2,32404,50000,5794,48891,0,0,0,0,0.00,0.00,0.00,0.00
2014-09-28 01:40:00,2,48851,0,0.00,2,2,0,2,44438,50000,1702,49752,0,0,0,0,0.00,0.00,0.00,0.00
2014-09-28 01:50:00,2,28926,12,0.05,2,2,0,2,1936,50000,17371,35646,0,40,18,0,0.00,0.45,0.13,0.00
2014-09-28 02:00:00,2,5266,71,0.27,2,2,0,2,1730,9036,2596,5346,71,71,0,71,0.00,0.75,0.28,0.15
2014-09-28 02:10:00,2,40274,7,0.00,2,2,0,2,9751,50000,12717,46146,0,71,21,0,0.00,0.00,0.00,0.00
2014-09-28 02:20:00,2,6783,50,0.25,2,2,0,2,1733,17561,4638,6311,0,71,33,71,0.00,1.05,0.38,0.03
2014-09-28 02:30:00,2,8362,45,0.04,2,2,0,2,3987,14020,3249,8620,0,71,26,41,0.00,0.20,0.07,0.00
2014-09-28 02:40:00,2,32165,45,0.01,2,2,0,2,6653,50000,16750,39028,0,77,37,71,0.00,0.05,0.02,0.00
2014-09-28 02:50:00,2,14138,14,0.05,2,2,0,2,4427,42970,11336,9298,0,71,28,0,0.00,0.45,0.13,0.00
2014-09-28 03:00:00,2,23562,36,0.06,2,2,0,2,4921,40669,11370,26962,0,71,36,36,0.00,0.50,0.15,0.00
2014-09-28 03:10:00,2,33643,16,0.00,2,2,0,2,10579,50000,14930,36305,0,41,20,0,0.00,0.00,0.00,0.00
2014-09-28 03:20:00,2,49403,0,0.00,2,2,0,2,45296,50000,1420,50000,0,0,0,0,0.00,0.00,0.00,0.00
2014-09-28 03:30:00,2,49158,0,0.00,2,2,0,2,46489,50000,1287,50000,0,0,0,0,0.00,0.00,0.00,0.00
2014-09-28 03:40:00,2,49893,0,0.00,2,2,0,2,49501,50000,196,50000,0,0,0,0,0.00,0.00,0.00,0.00
2014-09-28 03:50:00,2,45397,0,0.00,2,2,0,2,37371,50000,4917,47654,0,0,0,0,0.00,0.00,0.00,0.00
2014-09-28 04:00:00,2,49753,0,0.00,2,2,0,2,47526,50000,742,50000,0,0,0,0,0.00,0.00,0.00,0.00
2014-09-28 04:10:00,2,50000,0,0.00,2,2,0,2,50000,50000,0,50000,0,0,0,0,0.00,0.00,0.00,0.00
2014-09-28 04:20:00,2,48610,0,0.00,2,2,0,2,42511,50000,2439,49942,0,0,0,0,0.00,0.00,0.00,0.00
2014-09-28 04:30:00,2,49092,0,0.00,2,2,0,2,44675,50000,1638,49960,0,0,0,0,0.00,0.00,0.00,0.00
2014-09-28 04:40:00,2,48473,0,0.00,2,2,0,2,42262,50000,2411,49995,0,0,0,0,0.00,0.00,0.00,0.00
2014-09-28 04:50:00,2,49611,0,0.00,2,2,0,2,47747,50000,790,50000,0,0,0,0,0.00,0.00,0.00,0.00
2014-09-28 05:00:00,2,47582,0,0.00,2,2,0,2,42738,50000,2726,48552,0,0,0,0,0.00,0.00,0.00,0.00
2014-09-28 05:10:00,2,34886,12,0.07,2,2,0,2,11258,49850,16884,47086,0,41,18,0,0.00,0.35,0.11,0.00
2014-09-28 05:20:00,2,35855,24,0.01,2,2,0,2,16418,46194,11435,41543,0,61,25,20,0.00,0.05,0.02,0.00
2014-09-28 05:30:00,2,48922,0,0.00,2,2,0,2,45978,50000,1491,49754,0,0,0,0,0.00,0.00,0.00,0.00
2014-09-28 05:40:00,2,50000,0,0.00,2,2,0,2,50000,50000,0,50000,0,0,0,0,0.00,0.00,0.00,0.00
2014-09-28 05:50:00,2,48853,0,0.00,2,2,0,2,43791,50000,1932,49898,0,0,0,0,0.00,0.00,0.00,0.00
2014-09-28 06:00:00,2,47593,0,0.00,2,2,0,2,41729,50000,2761,48404,0,0,0,0,0.00,0.00,0.00,0.00
2014-09-28 06:10:00,2,46842,0,0.00,2,2,0,2,39376,50000,3718,48334,0,0,0,0,0.00,0.00,0.00,0.00
2014-09-28 06:20:00,2,48950,0,0.00,2,2,0,2,45384,50000,1774,49940,0,0,0,0,0.00,0.00,0.00,0.00
2014-09-28 06:30:00,2,49898,0,0.00,2,2,0,2,49066,50000,278,50000,0,0,0,0,0.00,0.00,0.00,0.00
2014-09-28 06:40:00,2,49138,0,0.00,2,2,0,2,47314,50000,976,49502,0,0,0,0,0.00,0.00,0.00,0.00
2014-09-28 06:50:00,2,49878,0,0.00,2,2,0,2,48776,50000,367,50000,0,0,0,0,0.00,0.00,0.00,0.00
2014-09-28 07:00:00,2,49406,0,0.00,2,2,0,2,46619,50000,1133,50000,0,0,0,0,0.00,0.00,0.00,0.00
2014-09-28 07:10:00,2,31567,0,0.00,2,2,0,2,24908,49672,8287,27712,0,0,0,0,0.00,0.00,0.00,0.00
2014-09-28 07:20:00,2,29535,0,0.00,2,2,0,2,26153,32437,1969,29940,0,0,0,0,0.00,0.00,0.00,0.00
2014-09-28 07:30:00,2,40062,0,0.00,2,2,0,2,34619,45862,4094,39640,0,0,0,0,0.00,0.00,0.00,0.00
2014-09-28 07:40:00,2,46818,0,0.00,2,2,0,2,41875,50000,2405,46582,0,0,0,0,0.00,0.00,0.00,0.00
2014-09-28 07:50:00,2,36367,0,0.00,2,2,0,2,28986,46381,5396,35599,0,0,0,0,0.00,0.00,0.00,0.00
2014-09-28 08:00:00,2,43327,0,0.00,2,2,0,2,35483,50000,5125,44340,0,0,0,0,0.00,0.00,0.00,0.00
2014-09-28 08:10:00,2,41644,0,0.00,2,2,0,2,33361,47996,4478,42560,0,0,0,0,0.00,0.00,0.00,0.00
2014-09-28 08:20:00,2,48454,0,0.00,2,2,0,2,44915,50000,1693,48866,0,0,0,0,0.00,0.00,0.00,0.00
2014-09-28 08:30:00,2,39740,0,0.00,2,2,0,2,29604,48275,5970,40300,0,0,0,0,0.00,0.00,0.00,0.00
2014-09-28 08:40:00,2,45091,0,0.00,2,2,0,2,39316,50000,3456,45884,0,0,0,0,0.00,0.00,0.00,0.00
2014-09-28 08:50:00,2,42607,0,0.00,2,2,0,2,33870,48632,4932,44831,0,0,0,0,0.00,0.00,0.00,0.00
2014-09-28 09:00:00,2,34835,0,0.00,2,2,0,2,29950,41485,4024,33150,0,0,0,0,0.00,0.00,0.00,0.00
2014-09-28 09:10:00,2,42741,0,0.00,2,2,0,2,38584,47046,2392,42896,0,0,0,0,0.00,0.00,0.00,0.00
2014-09-28 09:20:00,2,45641,0,0.00,2,2,0,2,39605,49011,3692,47652,0,0,0,0,0.00,0.00,0.00,0.00
2014-09-28 09:30:00,2,47353,0,0.00,2,2,0,2,40291,50000,3683,50000,0,0,0,0,0.00,0.00,0.00,0.00
2014-09-28 09:40:00,2,50000,0,0.00,2,2,0,2,50000,50000,0,50000,0,0,0,0,0.00,0.00,0.00,0.00
2014-09-28 09:50:00,2,46335,0,0.00,2,2,0,2,41857,50000,3059,46416,0,0,0,0,0.00,0.00,0.00,0.00
2014-09-28 10:00:00,2,49621,0,0.00,2,2,0,2,47581,50000,744,50000,0,0,0,0,0.00,0.00,0.00,0.00
2014-09-28 10:10:00,2,49978,0,0.00,2,2,0,2,49781,50000,66,50000,0,0,0,0,0.00,0.00,0.00,0.00
2014-09-28 10:20:00,2,50000,0,0.00,2,2,0,2,50000,50000,0,50000,0,0,0,0,0.00,0.00,0.00,0.00
2014-09-28 10:30:00,2,49861,0,0.00,2,2,0,2,49134,50000,289,50000,0,0,0,0,0.00,0.00,0.00,0.00
2014-09-28 10:40:00,2,50000,0,0.00,2,2,0,2,50000,50000,0,50000,0,0,0,0,0.00,0.00,0.00,0.00
2014-09-28 10:50:00,2,49997,0,0.00,2,2,0,2,49967,50000,10,50000,0,0,0,0,0.00,0.00,0.00,0.00
2014-09-28 11:00:00,2,49002,0,0.00,2,2,0,2,43622,50000,2090,50000,0,0,0,0,0.00,0.00,0.00,0.00
2014-09-28 11:10:00,2,49450,0,0.00,2,2,0,2,47305,50000,939,50000,0,0,0,0,0.00,0.00,0.00,0.00
2014-09-28 11:20:00,2,49998,0,0.00,2,2,0,2,49975,50000,8,50000,0,0,0,0,0.00,0.00,0.00,0.00
2014-09-28 11:30:00,2,50000,0,0.00,2,2,0,2,50000,50000,0,50000,0,0,0,0,0.00,0.00,0.00,0.00
2014-09-28 11:40:00,2,49187,0,0.00,2,2,0,2,46023,50000,1231,50000,0,0,0,0,0.00,0.00,0.00,0.00
2014-09-28 11:50:00,2,50000,0,0.00,2,2,0,2,50000,50000,0,50000,0,0,0,0,0.00,0.00,0.00,0.00
2014-09-28 12:00:00,2,50000,0,0.00,2,2,0,2,50000,50000,0,50000,0,0,0,0,0.00,0.00,0.00,0.00
2014-09-28 12:10:00,2,50000,0,0.00,2,2,0,2,50000,50000,0,50000,0,0,0,0,0.00,0.00,0.00,0.00
2014-09-28 12:20:00,2,49967,0,0.00,2,2,0,2,49669,50000,99,50000,0,0,0,0,0.00,0.00,0.00,0.00
2014-09-28 12:30:00,2,50000,0,0.00,2,2,0,2,50000,50000,0,50000,0,0,0,0,0.00,0.00,0.00,0.00
2014-09-28 12:40:00,2,49914,0,0.00,2,2,0,2,49145,50000,256,50000,0,0,0,0,0.00,0.00,0.00,0.00
2014-09-28 12:50:00,2,49988,0,0.00,2,2,0,2,49885,50000,34,50000,0,0,0,0,0.00,0.00,0.00,0.00
2014-09-28 13:00:00,2,50000,0,0.00,2,2,0,2,50000,50000,0,50000,0,0,0,0,0.00,0.00,0.00,0.00
2014-09-28 13:10:00,2,50000,0,0.00,2,2,0,2,50000,50000,0,50000,0,0,0,0,0.00,0.00,0.00,0.00
2014-09-28 13:20:00,2,49926,0,0.00,2,2,0,2,49257,50000,223,50000,0,0,0,0,0.00,0.00,0.00,0.00
2014-09-28 13:30:00,2,49874,0,0.00,2,2,0,2,48737,50000,379,50000,0,0,0,0,0.00,0.00,0.00,0.00
2014-09-28 13:40:00,2,50000,0,0.00,2,2,0,2,50000,50000,0,50000,0,0,0,0,0.00,0.00,0.00,0.00
2014-09-28 13:50:00,2,50000,0,0.00,2,2,0,2,50000,50000,0,50000,0,0,0,0,0.00,0.00,0.00,0.00
2014-09-28 14:00:00,2,50000,0,0.00,2,2,0,2,50000,50000,0,50000,0,0,0,0,0.00,0.00,0.00,0.00
2014-09-28 14:10:00,2,50000,0,0.00,2,2,0,2,50000,50000,0,50000,0,0,0,0,0.00,0.00,0.00,0.00
2014-09-28 14:20:00,2,50000,0,0.00,2,2,0,2,50000,50000,0,50000,0,0,0,0,0.00,0.00,0.00,0.00
2014-09-28 14:30:00,2,50000,0,0.00,2,2,0,2,50000,50000,0,50000,0,0,0,0,0.00,0.00,0.00,0.00
2014-09-28 14:40:00,2,50000,0,0.00,2,2,0,2,50000,50000,0,50000,0,0,0,0,0.00,0.00,0.00,0.00
2014-09-28 14:50:00,2,49920,0,0.00,2,2,0,2,49294,50000,211,50000,0,0,0,0,0.00,0.00,0.00,0.00
2014-09-28 15:00:00,2,50000,0,0.00,2,2,0,2,50000,50000,0,50000,0,0,0,0,0.00,0.00,0.00,0.00
2014-09-28 15:10:00,2,49803,0,0.00,2,2,0,2,48595,50000,437,50000,0,0,0,0,0.00,0.00,0.00,0.00
2014-09-28 15:20:00,2,50000,0,0.00,2,2,0,2,50000,50000,0,50000,0,0,0,0,0.00,0.00,0.00,0.00
2014-09-28 15:30:00,2,50000,0,0.00,2,2,0,2,50000,50000,0,50000,0,0,0,0,0.00,0.00,0.00,0.00
2014-09-28 15:40:00,2,49868,0,0.00,2,2,0,2,48677,50000,397,50000,0,0,0,0,0.00,0.00,0.00,0.00
2014-09-28 15:50:00,2,49802,0,0.00,2,2,0,2,48023,50000,593,50000,0,0,0,0,0.00,0.00,0.00,0.00
2014-09-28 16:00:00,2,50000,0,0.00,2,2,0,2,50000,50000,0,50000,0,0,0,0,0.00,0.00,0.00,0.00
2014-09-28 16:10:00,2,49897,0,0.00,2,2,0,2,48966,50000,310,50000,0,0,0,0,0.00,0.00,0.00,0.00
2014-09-28 16:20:00,2,50000,0,0.00,2,2,0,2,50000,50000,0,50000,0,0,0,0,0.00,0.00,0.00,0.00
2014-09-28 16:30:00,2,49770,0,0.00,2,2,0,2,47807,50000,655,50000,0,0,0,0,0.00,0.00,0.00,0.00
2014-09-28 16:40:00,2,49975,0,0.00,2,2,0,2,49749,50000,75,50000,0,0,0,0,0.00,0.00,0.00,0.00
2014-09-28 16:50:00,2,50000,0,0.00,2,2,0,2,50000,50000,0,50000,0,0,0,0,0.00,0.00,0.00,0.00
2014-09-28 17:00:00,2,50000,0,0.00,2,2,0,2,50000,50000,0,50000,0,0,0,0,0.00,0.00,0.00,0.00
2014-09-28 17:10:00,2,50000,0,0.00,2,2,0,2,50000,50000,0,50000,0,0,0,0,0.00,0.00,0.00,0.00
2014-09-28 17:20:00,2,50000,0,0.00,2,2,0,2,50000,50000,0,50000,0,0,0,0,0.00,0.00,0.00,0.00
2014-09-28 17:30:00,2,50000,0,0.00,2,2,0,2,50000,50000,0,50000,0,0,0,0,0.00,0.00,0.00,0.00
2014-09-28 17:40:00,2,50000,0,0.00,2,2,0,2,50000,50000,0,50000,0,0,0,0,0.00,0.00,0.00,0.00
2014-09-28 17:50:00,2,49806,0,0.00,2,2,0,2,48407,50000,478,50000,0,0,0,0,0.00,0.00,0.00,0.00
2014-09-28 18:00:00,2,50000,0,0.00,2,2,0,2,50000,50000,0,50000,0,0,0,0,0.00,0.00,0.00,0.00
2014-09-28 18:10:00,2,49917,0,0.00,2,2,0,2,49166,50000,250,50000,0,0,0,0,0.00,0.00,0.00,0.00
2014-09-28 18:20:00,2,50000,0,0.00,2,2,0,2,50000,50000,0,50000,0,0,0,0,0.00,0.00,0.00,0.00
2014-09-28 18:30:00,2,49822,0,0.00,2,2,0,2,48252,50000,524,50000,0,0,0,0,0.00,0.00,0.00,0.00
2014-09-28 18:40:00,2,49843,0,0.00,2,2,0,2,48926,50000,322,50000,0,0,0,0,0.00,0.00,0.00,0.00
2014-09-28 18:50:00,2,50000,0,0.00,2,2,0,2,50000,50000,0,50000,0,0,0,0,0.00,0.00,0.00,0.00
2014-09-28 19:00:00,2,50000,0,0.00,2,2,0,2,50000,50000,0,50000,0,0,0,0,0.00,0.00,0.00,0.00
2014-09-28 19:10:00,2,50000,0,0.00,2,2,0,2,50000,50000,0,50000,0,0,0,0,0.00,0.00,0.00,0.00
2014-09-28 19:20:00,2,49762,0,0.00,2,2,0,2,47617,50000,715,50000,0,0,0,0,0.00,0.00,0.00,0.00
2014-09-28 19:30:00,2,50000,0,0.00,2,2,0,2,50000,50000,0,50000,0,0,0,0,0.00,0.00,0.00,0.00
2014-09-28 19:40:00,2,50000,0,0.00,2,2,0,2,50000,50000,0,50000,0,0,0,0,0.00,0.00,0.00,0.00
2014-09-28 19:50:00,2,50000,0,0.00,2,2,0,2,50000,50000,0,50000,0,0,0,0,0.00,0.00,0.00,0.00
2014-09-28 20:00:00,2,49906,0,0.00,2,2,0,2,49062,50000,281,50000,0,0,0,0,0.00,0.00,0.00,0.00
2014-09-28 20:10:00,2,49723,0,0.00,2,2,0,2,47266,50000,819,50000,0,0,0,0,0.00,0.00,0.00,0.00
2014-09-28 20:20:00,2,50000,0,0.00,2,2,0,2,50000,50000,0,50000,0,0,0,0,0.00,0.00,0.00,0.00
2014-09-28 20:30:00,2,49996,0,0.00,2,2,0,2,49961,50000,12,50000,0,0,0,0,0.00,0.00,0.00,0.00
2014-09-28 20:40:00,2,50000,0,0.00,2,2,0,2,50000,50000,0,50000,0,0,0,0,0.00,0.00,0.00,0.00
2014-09-28 20:50:00,2,50000,0,0.00,2,2,0,2,50000,50000,0,50000,0,0,0,0,0.00,0.00,0.00,0.00
2014-09-28 21:00:00,2,49985,0,0.00,2,2,0,2,49846,50000,46,50000,0,0,0,0,0.00,0.00,0.00,0.00
2014-09-28 21:10:00,2,50000,0,0.00,2,2,0,2,50000,50000,0,50000,0,0,0,0,0.00,0.00,0.00,0.00
2014-09-28 21:20:00,2,49350,0,0.00,2,2,0,2,46562,50000,1302,50000,0,0,0,0,0.00,0.00,0.00,0.00
2014-09-28 21:30:00,2,50000,0,0.00,2,2,0,2,50000,50000,0,50000,0,0,0,0,0.00,0.00,0.00,0.00
2014-09-28 21:40:00,2,50000,0,0.00,2,2,0,2,50000,50000,0,50000,0,0,0,0,0.00,0.00,0.00,0.00
2014-09-28 21:50:00,2,50000,0,0.00,2,2,0,2,50000,50000,0,50000,0,0,0,0,0.00,0.00,0.00,0.00
2014-09-28 22:00:00,2,49746,0,0.00,2,2,0,2,47455,50000,764,50000,0,0,0,0,0.00,0.00,0.00,0.00
2014-09-28 22:10:00,2,49120,0,0.00,2,2,0,2,45189,50000,1557,50000,0,0,0,0,0.00,0.00,0.00,0.00
2014-09-28 22:20:00,2,49881,0,0.00,2,2,0,2,48809,50000,357,50000,0,0,0,0,0.00,0.00,0.00,0.00
2014-09-28 22:30:00,2,49410,0,0.00,2,2,0,2,45225,50000,1435,50000,0,0,0,0,0.00,0.00,0.00,0.00
2014-09-28 22:40:00,2,48296,0,0.00,2,2,0,2,42618,50000,2803,49640,0,0,0,0,0.00,0.00,0.00,0.00
2014-09-28 22:50:00,2,49981,0,0.00,2,2,0,2,49806,50000,58,50000,0,0,0,0,0.00,0.00,0.00,0.00
2014-09-28 23:00:00,2,50000,0,0.00,2,2,0,2,50000,50000,0,50000,0,0,0,0,0.00,0.00,0.00,0.00
2014-09-28 23:10:00,2,49581,0,0.00,2,2,0,2,47022,50000,926,50000,0,0,0,0,0.00,0.00,0.00,0.00
2014-09-28 23:20:00,2,49236,0,0.00,2,2,0,2,42870,50000,2127,50000,0,0,0,0,0.00,0.00,0.00,0.00
2014-09-28 23:30:00,2,42200,0,0.00,2,2,0,2,34754,50000,4916,41160,0,0,0,0,0.00,0.00,0.00,0.00
2014-09-28 23:40:00,2,44144,0,0.00,2,2,0,2,32363,50000,7119,49550,0,0,0,0,0.00,0.00,0.00,0.00
2014-09-28 23:50:00,2,47691,0,0.00,2,2,0,2,43198,50000,2312,47963,0,0,0,0,0.00,0.00,0.00,0.00
